Content
SEND FEEDBACK

Daily
Averages
Monthly
Summary
United States of America

HALLOCK, MINNESOTA


Home > North America > United States > Minnesota
Elevation: 818 feet     Latitude: 48 46N     Longitude: 096 56W

WEATHER
 
SELECT A DAY
Number of Records: 446,565;   Date Range: 1/1/95 - 8/30/14
 
SHARE

PRINT THIS DATA

[ ← Previous Day ]
WEATHER ALMANAC - JANUARY 31, 2013
[ Next Day → ]
[ °C ]   °F
Weather ElementAverageHighLow
Temperature-11.8 °F-5.8 °F (12:34 am)-20.2 °F (9:34 pm)
Dewpoint-18.2 °F-9.4 °F (12:34 am)-27.4 °F (9:34 pm)
Humidity73.2 %84 % (12:34 am)64 % (3:54 pm)
Barometer30.16 in30.27 in (6:14 pm)29.93 in (12:34 am)
Wind Speed15.7 mph25.3 mph (2:34 am)
Wind Gust32.2 mph (2:34 am)
Weather ElementAverage
Visibility4 mi
Wind DirectionNW (314.5 °)

Weather ElementTotal
Precipitation---
Heating Degree Days78 (Base 65)
Averaged from 67 records on January 31, 2013
WEATHER CONDITIONS BREAKOUT
WIND DIRECTION BREAKOUT
WEATHER BY HOUR - JANUARY 31, 2013
[ °C ]   °F
Local TimeTemperatureDewpointHumidityBarometerVisibilityWind DirectionWind SpeedGust SpeedPrecipitationEventsConditions
12:34 AM-5.8 °F-9.4 °F84 %29.93 in0.8 miNNW (330°)21.9 mph28.8 mphSnowLight Snow
12:54 AM-5.8 °F-9.4 °F84 %29.94 in0.8 miNNW (330°)20.7 mph26.5 mphSnowLight Snow
1:14 AM-5.8 °F-11.2 °F77 %29.95 in1.0 miNNW (330°)21.9 mph26.5 mphHaze
1:34 AM-5.8 °F-11.2 °F77 %29.95 in1.5 miNNW (330°)20.7 mph25.3 mphHaze
1:54 AM-5.8 °F-11.2 °F77 %29.96 in1.5 miNNW (330°)19.6 mphHaze
2:14 AM-5.8 °F-11.2 °F77 %29.97 in1.0 miNNW (340°)21.9 mph26.5 mphSnowLight Snow
2:34 AM-7.6 °F-11.2 °F84 %29.97 in1.0 miNNW (340°)25.3 mph32.2 mphSnowLight Snow
2:54 AM-7.6 °F-11.2 °F84 %29.98 in1.0 miNNW (340°)21.9 mph31.1 mphSnowLight Snow
3:14 AM-7.6 °F-11.2 °F84 %29.98 in0.8 miNNW (340°)23.0 mph28.8 mphSnowLight Snow
3:34 AM-7.6 °F-11.2 °F84 %29.99 in1.0 miNNW (340°)21.9 mph31.1 mphSnowLight Snow
3:54 AM-7.6 °F-13.0 °F77 %30.00 in1.5 miNNW (340°)23.0 mph27.6 mphSnowLight Snow
4:14 AM-7.6 °F-13.0 °F77 %30.01 in1.2 miNNW (340°)21.9 mph25.3 mphHaze
4:34 AM-7.6 °F-13.0 °F77 %30.02 in1.0 miNNW (340°)23.0 mph29.9 mphSnowLight Snow
4:54 AM-7.6 °F-13.0 °F77 %30.04 in1.5 miNNW (330°)19.6 mph28.8 mphSnowLight Snow
5:14 AM-7.6 °F-13.0 °F77 %30.04 in1.2 miNNW (330°)21.9 mph31.1 mphSnowLight Snow
5:34 AM-7.6 °F-13.0 °F77 %30.05 in1.5 miNNW (340°)20.7 mph27.6 mphHaze
5:54 AM-7.6 °F-13.0 °F77 %30.06 in1.8 miNNW (330°)17.3 mph25.3 mphHaze
6:14 AM-7.6 °F-13.0 °F77 %30.07 in1.8 miNNW (330°)21.9 mph25.3 mphSnowLight Snow
6:34 AM-9.4 °F-14.8 °F77 %30.08 in1.5 miNNW (330°)20.7 mph27.6 mphHaze
6:53 AM-9.4 °F-14.8 °F77 %30.09 in1.5 miNNW (330°)19.6 mphHaze
7:14 AM-9.4 °F-14.8 °F77 %30.10 in1.5 miNNW (340°)21.9 mphHaze
7:34 AM-9.4 °F-14.8 °F77 %30.11 in1.5 miNNW (330°)20.7 mphHaze
7:53 AM-9.4 °F-14.8 °F77 %30.12 in1.2 miNNW (340°)20.7 mph29.9 mphHaze
8:14 AM-9.4 °F-16.6 °F71 %30.14 in0.8 miNNW (330°)20.7 mph27.6 mphHaze
8:31 AM-11.2 °F-16.6 °F77 %30.15 in0.8 miNNW (330°)18.4 mph29.9 mphHaze
8:54 AM-11.2 °F-16.6 °F77 %30.16 in1.0 miNNW (330°)20.7 mph28.8 mph
9:18 AM-11.2 °F-16.6 °F77 %30.17 in0.8 miNNW (330°)20.7 mph25.3 mphHaze
9:34 AM-11.2 °F-18.4 °F70 %30.18 in1.0 miNNW (330°)20.7 mphHaze
9:54 AM-11.2 °F-18.4 °F70 %30.18 in1.2 miNNW (330°)18.4 mphHaze
10:14 AM-11.2 °F-18.4 °F70 %30.19 in1.5 miNNW (330°)21.9 mph27.6 mphHaze
10:34 AM-11.2 °F-18.4 °F70 %30.20 in1.2 miNNW (330°)19.6 mph27.6 mphHaze
11:14 AM-11.2 °F-18.4 °F70 %30.21 in1.5 miNNW (330°)21.9 mph28.8 mphOvercast
11:34 AM-11.2 °F-18.4 °F70 %30.22 in1.5 miNNW (330°)19.6 mphHaze
11:54 AM-11.2 °F-18.4 °F70 %30.22 in1.5 miNNW (330°)18.4 mphOvercast
12:14 PM-13.0 °F-20.2 °F70 %30.22 in2.0 miNNW (330°)19.6 mph24.2 mphOvercast
12:34 PM-11.2 °F-18.4 °F70 %30.22 in1.8 miNW (320°)17.3 mph25.3 mphHaze
12:54 PM-11.2 °F-18.4 °F70 %30.22 in1.8 miNNW (330°)17.3 mphHaze
1:14 PM-11.2 °F-18.4 °F70 %30.23 in1.2 miNW (320°)18.4 mph24.2 mphHaze
1:34 PM-11.2 °F-18.4 °F70 %30.23 in1.5 miNW (320°)16.1 mph24.2 mphHaze
1:54 PM-11.2 °F-18.4 °F70 %30.23 in1.8 miNNW (330°)18.4 mphHaze
2:14 PM-11.2 °F-18.4 °F70 %30.23 in1.8 miNW (320°)17.3 mph23.0 mphHaze
2:34 PM-11.2 °F-18.4 °F70 %30.23 in2.5 miNNW (330°)17.3 mphHaze
2:54 PM-11.2 °F-18.4 °F70 %30.24 in1.2 miNW (320°)17.3 mph23.0 mphHaze
3:14 PM-11.2 °F-18.4 °F70 %30.24 in1.8 miNW (310°)19.6 mph23.0 mphHaze
3:34 PM-11.2 °F-18.4 °F70 %30.25 in2.5 miNW (320°)16.1 mph23.0 mphOvercast
3:54 PM-11.2 °F-20.2 °F64 %30.25 in5.0 miNW (320°)16.1 mph19.6 mphMostly Cloudy
4:14 PM-13.0 °F-20.2 °F70 %30.25 in4.0 miNW (320°)16.1 mphHaze
4:34 PM-13.0 °F-20.2 °F70 %30.26 in10.0 miNW (320°)11.5 mphMostly Cloudy
4:54 PM-13.0 °F-20.2 °F70 %30.26 in10.0 miNNW (330°)10.4 mphScattered Clouds
5:14 PM-14.8 °F-20.2 °F77 %30.26 in10.0 miNW (320°)11.5 mphClear
5:34 PM-14.8 °F-22.0 °F70 %30.26 in10.0 miNW (320°)8.1 mph
6:14 PM-14.8 °F-23.8 °F64 %30.27 in10.0 miNW (310°)5.8 mphClear
6:34 PM-16.6 °F-23.8 °F70 %30.26 in10.0 miNW (310°)4.6 mphClear
6:54 PM-16.6 °F-23.8 °F70 %30.26 in10.0 miWNW (300°)5.8 mphClear
7:14 PM-16.6 °F-23.8 °F70 %30.27 in10.0 miWNW (290°)5.8 mphClear
7:34 PM-16.6 °F-23.8 °F70 %30.27 in10.0 miWNW (290°)5.8 mphClear
8:14 PM-16.6 °F-23.8 °F70 %30.27 in10.0 miWNW (290°)5.8 mphClear
8:34 PM-16.6 °F-25.6 °F64 %30.26 in10.0 miWNW (290°)5.8 mphClear
8:54 PM-18.4 °F-25.6 °F70 %30.26 in10.0 miWNW (290°)4.6 mphClear
9:14 PM-18.4 °F-25.6 °F70 %30.26 in10.0 miWNW (300°)3.5 mphClear
9:34 PM-20.2 °F-27.4 °F69 %30.25 in10.0 miCalmClear
10:14 PM-20.2 °F-25.6 °F76 %30.25 in10.0 miWest (280°)3.5 mphClear
10:34 PM-20.2 °F-27.4 °F69 %30.25 in10.0 miWest (280°)3.5 mphClear
10:54 PM-20.2 °F-27.4 °F69 %30.25 in10.0 miWest (260°)3.5 mphClear
11:14 PM-20.2 °F-27.4 °F69 %30.24 in10.0 miWSW (250°)3.5 mphClear
11:34 PM-20.2 °F-27.4 °F69 %30.24 in10.0 miWSW (250°)3.5 mphClear
11:54 PM-20.2 °F-27.4 °F69 %30.23 in10.0 miWest (270°)4.6 mphClear
Hourly data recorded from KHCO, located miles away from Hallock, Minnesota







STORIES FROM OUR PARTNERS